Weather History for Macomb, IL

Change the Weather History Date:

Sunday, February 17, 2013

  Actual Average (KBRL) Record (KBRL)
Temperature  
Mean Temperature 27 °F 30 °F  
Max Temperature 39 °F 39 °F 67 °F (2011)
Min Temperature 15 °F 22 °F -18 °F (1958)
Degree Days  
Heating Degree Days 38 34  
Month to date heating degree days 621  
Since 1 July heating degree days 4022  
Cooling Degree Days 0 0  
Month to date cooling degree days 0  
Year to date cooling degree days 0  
Moisture  
Dew Point 19 °F    
Average Humidity 73    
Maximum Humidity 89    
Minimum Humidity 49    
Precipitation  
Precipitation 0.00 in 0.06 in 1.17 in (2008)
Month to date precipitation 0.87  
Year to date precipitation 2.11  
Sea Level Pressure  
Sea Level Pressure 30.09 in    
Wind  
Wind Speed 9 mph (SE)    
Max Wind Speed 21 mph    
Max Gust Speed 26 mph    
Visibility 10 miles    
Events      
T = Trace of Precipitation, MM = Missing Value Source: NWS Daily Summary

Daily Weather History Graph

Daily Weather History Graph

Search for Another Location

Airport:

Trip Planner

Search our weather history database for the weather conditions in past years. The results will help you decide how hot, cold, wet, or windy it might be!

Date:

Astronomy

Feb. 17, 2013 Rise Set
Actual Time 6:53 AM CST 5:40 PM CST
Civil Twilight 6:25 AM CST 6:08 PM CST
Nautical Twilight 5:53 AM CST 6:40 PM CST
Astronomical Twilight 5:21 AM CST 7:11 PM CST
Moon 10:44 AM CST (2/17) 12:38 AM CST (2/17)
Length of Visible Light 11h 42m
Length of Day
10h 47m
Waxing Crescent, 49% of the Moon is Illuminated
Feb 17
Waxing Crescent
Feb 17
First Quarter
Feb 25
Full
Mar 4
Last Quarter
Mar 11
New

Hourly Weather History & Observations

Time (CST) Temp. Windchill Dew Point Humidity Pressure Visibility Wind Dir Wind Speed Gust Speed Precip Events Conditions
12:15 AM 17.6 °F 10.7 °F 14.7 °F 88% 30.19 in 10.0 mi East 4.6 mph - N/A   Clear
12:35 AM 17.6 °F 9.3 °F 14.5 °F 88% 30.19 in 10.0 mi East 5.8 mph - N/A   Clear
12:55 AM 17.2 °F 10.2 °F 14.2 °F 88% 30.19 in 10.0 mi East 4.6 mph - N/A   Clear
1:15 AM 17.6 °F 10.7 °F 14.7 °F 88% 30.19 in 10.0 mi ESE 4.6 mph - N/A   Clear
1:35 AM 17.1 °F 10.0 °F 14.0 °F 88% 30.19 in 10.0 mi ESE 4.6 mph - N/A   Clear
1:55 AM 17.1 °F 11.7 °F 13.1 °F 84% 30.19 in 10.0 mi SE 3.5 mph - N/A   Clear
2:15 AM 16.3 °F 9.2 °F 12.7 °F 86% 30.19 in 10.0 mi SE 4.6 mph - N/A   Clear
2:35 AM 16.5 °F 11.0 °F 12.9 °F 86% 30.19 in 10.0 mi ESE 3.5 mph - N/A   Clear
2:55 AM 16.3 °F 9.2 °F 13.1 °F 87% 30.18 in 10.0 mi ESE 4.6 mph - N/A   Clear
3:15 AM 16.0 °F 10.4 °F 12.9 °F 88% 30.18 in 10.0 mi ESE 3.5 mph - N/A   Clear
3:35 AM 16.2 °F 7.6 °F 13.1 °F 88% 30.18 in 10.0 mi ESE 5.8 mph - N/A   Clear
3:55 AM 17.2 °F 6.8 °F 13.5 °F 85% 30.18 in 10.0 mi ESE 8.1 mph - N/A   Clear
4:15 AM 16.5 °F 6.9 °F 13.5 °F 88% 30.19 in 10.0 mi ESE 6.9 mph - N/A   Clear
4:35 AM 16.2 °F 7.6 °F 13.3 °F 88% 30.19 in 10.0 mi ESE 5.8 mph - N/A   Clear
4:55 AM 15.8 °F 6.1 °F 13.1 °F 89% 30.19 in 10.0 mi SE 6.9 mph - N/A   Clear
5:15 AM 15.8 °F 5.1 °F 13.1 °F 89% 30.19 in 10.0 mi ESE 8.1 mph - N/A   Clear
5:35 AM 15.8 °F 6.1 °F 12.9 °F 88% 30.19 in 10.0 mi ESE 6.9 mph - N/A   Clear
5:55 AM 15.8 °F 4.2 °F 12.7 °F 88% 30.20 in 10.0 mi SE 9.2 mph - N/A   Clear
6:15 AM 15.6 °F 4.9 °F 12.6 °F 88% 30.19 in 10.0 mi ESE 8.1 mph - N/A   Clear
6:35 AM 15.4 °F 3.8 °F 12.2 °F 87% 30.20 in 10.0 mi ESE 9.2 mph - N/A   Clear
6:55 AM 15.4 °F 3.8 °F 12.0 °F 86% 30.19 in 10.0 mi SE 9.2 mph - N/A   Clear
7:15 AM 15.4 °F 3.8 °F 11.8 °F 86% 30.19 in 10.0 mi SE 9.2 mph - N/A   Clear
7:35 AM 15.8 °F 4.2 °F 12.6 °F 87% 30.19 in 10.0 mi SE 9.2 mph - N/A   Clear
7:55 AM 16.5 °F 4.3 °F 13.1 °F 86% 30.19 in 10.0 mi SE 10.4 mph - N/A   Clear
8:15 AM 17.8 °F 5.9 °F 14.0 °F 85% 30.19 in 10.0 mi SE 10.4 mph - N/A   Clear
8:35 AM 19.0 °F 7.5 °F 14.7 °F 83% 30.19 in 10.0 mi SE 10.4 mph - N/A   Clear
8:55 AM 20.3 °F 7.2 °F 15.8 °F 83% 30.19 in 10.0 mi SE 13.8 mph - N/A   Clear
9:15 AM 21.9 °F 9.8 °F 17.1 °F 82% 30.18 in 10.0 mi SE 12.7 mph - N/A   Clear
9:35 AM 23.5 °F 10.8 °F 18.0 °F 79% 30.18 in 10.0 mi SE 15.0 mph - N/A   Clear
9:55 AM 24.6 °F 13.8 °F 18.1 °F 76% 30.19 in 10.0 mi SE 11.5 mph - N/A   Clear
10:15 AM 26.4 °F 15.0 °F 18.5 °F 72% 30.18 in 10.0 mi SSE 13.8 mph 18.4 mph N/A   Mostly Cloudy
10:35 AM 27.7 °F 17.6 °F 18.9 °F 69% 30.18 in 10.0 mi SSE 11.5 mph - N/A   Scattered Clouds
10:55 AM 28.9 °F 18.2 °F 19.4 °F 68% 30.18 in 10.0 mi SE 13.8 mph - N/A   Clear
11:15 AM 30.2 °F 19.8 °F 19.8 °F 65% 30.17 in 10.0 mi SSE 13.8 mph - N/A   Clear
11:35 AM 31.5 °F 21.4 °F 20.5 °F 64% 30.17 in 10.0 mi SSE 13.8 mph 19.6 mph N/A   Clear
11:55 AM 32.0 °F 22.5 °F 21.2 °F 64% 30.16 in 10.0 mi SE 12.7 mph - N/A   Clear
12:15 PM 33.3 °F 23.2 °F 21.2 °F 61% 30.14 in 10.0 mi SSE 15.0 mph - N/A   Clear
1:15 PM 35.8 °F 26.5 °F 22.5 °F 58% 30.10 in 10.0 mi SE 15.0 mph - N/A   Clear
1:35 PM 36.9 °F 27.8 °F 22.3 °F 56% 30.09 in 10.0 mi SE 15.0 mph - N/A   Clear
1:55 PM 36.9 °F 27.5 °F 22.1 °F 55% 30.07 in 10.0 mi SE 16.1 mph 21.9 mph N/A   Clear
2:15 PM 37.6 °F 28.4 °F 22.1 °F 54% 30.06 in 10.0 mi SE 16.1 mph 25.3 mph N/A   Clear
2:35 PM 38.5 °F 29.6 °F 22.5 °F 53% 30.05 in 10.0 mi SE 16.1 mph 20.7 mph N/A   Clear
2:55 PM 39.0 °F 29.6 °F 22.6 °F 52% 30.05 in 10.0 mi SE 18.4 mph 24.2 mph N/A   Clear
3:15 PM 39.2 °F 29.8 °F 22.3 °F 51% 30.04 in 10.0 mi SE 18.4 mph - N/A   Clear
3:35 PM 39.6 °F 30.6 °F 21.9 °F 49% 30.03 in 10.0 mi SSE 17.3 mph 24.2 mph N/A   Clear
3:55 PM 39.2 °F 29.3 °F 22.1 °F 50% 30.02 in 10.0 mi SE 20.7 mph - N/A   Clear
4:15 PM 39.7 °F 30.3 °F 22.5 °F 50% 30.01 in 10.0 mi SE 19.6 mph - N/A   Clear
4:35 PM 39.4 °F 30.4 °F 23.0 °F 52% 30.00 in 10.0 mi SSE 17.3 mph 26.5 mph N/A   Clear
4:55 PM 38.8 °F 30.0 °F 23.2 °F 53% 30.00 in 10.0 mi SE 16.1 mph - N/A   Clear
5:15 PM 37.4 °F 28.2 °F 22.8 °F 56% 29.99 in 10.0 mi SE 16.1 mph - N/A   Clear
5:35 PM 36.5 °F 27.4 °F 22.6 °F 57% 29.99 in 10.0 mi SE 15.0 mph - N/A   Clear
5:55 PM 35.6 °F 26.6 °F 23.0 °F 60% 29.99 in 10.0 mi SE 13.8 mph - N/A   Clear
6:15 PM 34.7 °F 25.5 °F 23.5 °F 64% 29.98 in 10.0 mi SE 13.8 mph - N/A   Clear
6:35 PM 34.7 °F 25.9 °F 23.7 °F 64% 29.98 in 10.0 mi SE 12.7 mph - N/A   Clear
6:55 PM 33.8 °F 24.8 °F 23.0 °F 65% 29.97 in 10.0 mi SE 12.7 mph - N/A   Clear
7:15 PM 33.4 °F 24.3 °F 23.7 °F 68% 29.97 in 10.0 mi SE 12.7 mph - N/A   Clear
7:35 PM 33.3 °F 24.1 °F 23.9 °F 69% 29.98 in 10.0 mi SE 12.7 mph - N/A   Clear
7:55 PM 33.1 °F 23.4 °F 24.1 °F 70% 29.97 in 10.0 mi SE 13.8 mph - N/A   Clear
8:15 PM 33.1 °F 23.9 °F 23.9 °F 69% 29.97 in 10.0 mi SE 12.7 mph 18.4 mph N/A   Clear
8:35 PM 32.9 °F 23.7 °F 23.9 °F 69% 29.95 in 10.0 mi SE 12.7 mph 19.6 mph N/A   Clear
8:55 PM 32.4 °F 23.0 °F 23.9 °F 71% 29.95 in 10.0 mi SE 12.7 mph - N/A   Clear
9:15 PM 32.5 °F 22.7 °F 23.9 °F 70% 29.94 in 10.0 mi SE 13.8 mph - N/A   Clear
9:35 PM 32.4 °F 22.5 °F 24.1 °F 72% 29.93 in 10.0 mi SE 13.8 mph - N/A   Clear
9:55 PM 32.5 °F 22.3 °F 24.1 °F 71% 29.92 in 10.0 mi SE 15.0 mph 19.6 mph N/A   Clear
10:15 PM 32.9 °F 22.4 °F 24.3 °F 71% 29.92 in 10.0 mi SE 16.1 mph - N/A   Clear
10:35 PM 33.1 °F 22.2 °F 24.8 °F 72% 29.90 in 10.0 mi SE 17.3 mph - N/A   Clear
10:55 PM 33.8 °F 23.5 °F 24.8 °F 70% 29.89 in 10.0 mi SSE 16.1 mph - N/A   Clear
11:15 PM 33.8 °F 23.2 °F 26.2 °F 74% 29.88 in 10.0 mi SSE 17.3 mph - N/A   Clear
11:35 PM 34.0 °F 23.8 °F 26.4 °F 74% 29.88 in 10.0 mi SSE 16.1 mph 21.9 mph N/A   Clear
11:55 PM 33.8 °F 24.3 °F 26.6 °F 75% 29.88 in 10.0 mi SSE 13.8 mph - N/A   Clear